Time,TemperatureF,DewpointF,PressureIn,WindDirection,WindDirectionDegrees,WindSpeedMPH,WindSpeedGustMPH,Humidity,HourlyPrecipIn,Conditions,Clouds,dailyrainin,SoftwareType,DateUTC
2013-02-14 00:01:00,40.0,20.0,30.15,North,360,3.0,6.0,45,0.00,,,0.00,,2013-02-14 08:01:00,
2013-02-14 00:11:00,40.0,20.0,30.15,North,360,3.0,6.0,45,0.00,,,0.00,,2013-02-14 08:11:00,
2013-02-14 00:21:00,39.0,20.0,30.14,NNW,346,1.0,7.0,46,0.00,,,0.00,,2013-02-14 08:21:00,
2013-02-14 00:31:00,40.0,20.0,30.14,North,355,4.0,6.0,45,0.00,,,0.00,,2013-02-14 08:31:00,
2013-02-14 00:43:00,40.0,20.0,30.14,North,355,4.0,6.0,45,0.00,,,0.00,,2013-02-14 08:43:00,
2013-02-14 00:52:00,42.0,20.0,30.14,North,360,1.0,6.0,41,0.00,,,0.00,,2013-02-14 08:52:00,
2013-02-14 01:01:00,41.0,19.0,30.14,North,355,3.0,4.0,41,0.00,,,0.00,,2013-02-14 09:01:00,
2013-02-14 01:11:00,41.0,20.0,30.14,North,351,3.0,6.0,43,0.00,,,0.00,,2013-02-14 09:11:00,
2013-02-14 01:21:00,41.0,20.0,30.14,North,351,3.0,6.0,43,0.00,,,0.00,,2013-02-14 09:21:00,
2013-02-14 01:31:00,40.0,20.0,30.14,North,355,2.0,4.0,44,0.00,,,0.00,,2013-02-14 09:31:00,
2013-02-14 01:41:00,40.0,20.0,30.14,North,355,2.0,4.0,44,0.00,,,0.00,,2013-02-14 09:41:00,
2013-02-14 01:52:00,40.0,21.0,30.14,NNW,344,3.0,4.0,46,0.00,,,0.00,,2013-02-14 09:52:00,
2013-02-14 02:01:00,40.0,21.0,30.13,North,355,3.0,5.0,46,0.00,,,0.00,,2013-02-14 10:01:00,
2013-02-14 02:11:00,40.0,21.0,30.13,North,351,1.0,3.0,47,0.00,,,0.00,,2013-02-14 10:11:00,
2013-02-14 02:21:00,40.0,21.0,30.13,North,351,1.0,3.0,47,0.00,,,0.00,,2013-02-14 10:21:00,
2013-02-14 02:31:00,40.0,22.0,30.13,North,350,0.0,3.0,48,0.00,,,0.00,,2013-02-14 10:31:00,
2013-02-14 02:41:00,40.0,22.0,30.13,North,350,0.0,3.0,48,0.00,,,0.00,,2013-02-14 10:41:00,
2013-02-14 02:52:00,40.0,21.0,30.12,North,351,1.0,5.0,46,0.00,,,0.00,,2013-02-14 10:52:00,
2013-02-14 03:01:00,41.0,20.0,30.12,NNW,338,3.0,6.0,43,0.00,,,0.00,,2013-02-14 11:01:00,
2013-02-14 03:11:00,41.0,20.0,30.11,North,349,3.0,5.0,42,0.00,,,0.00,,2013-02-14 11:11:00,
2013-02-14 03:21:00,41.0,20.0,30.11,North,349,3.0,5.0,42,0.00,,,0.00,,2013-02-14 11:21:00,
2013-02-14 03:31:00,42.0,20.0,30.11,North,349,1.0,7.0,41,0.00,,,0.00,,2013-02-14 11:31:00,
2013-02-14 03:41:00,42.0,20.0,30.11,North,349,1.0,7.0,41,0.00,,,0.00,,2013-02-14 11:41:00,
2013-02-14 03:52:00,42.0,19.0,30.11,NNW,346,1.0,7.0,40,0.00,,,0.00,,2013-02-14 11:52:00,
2013-02-14 04:01:00,42.0,19.0,30.11,NNW,346,2.0,4.0,40,0.00,,,0.00,,2013-02-14 12:01:00,
2013-02-14 04:11:00,42.0,19.0,30.11,NNW,346,2.0,4.0,40,0.00,,,0.00,,2013-02-14 12:11:00,
2013-02-14 04:21:00,41.0,19.0,30.12,NNW,346,3.0,4.0,41,0.00,,,0.00,,2013-02-14 12:21:00,
2013-02-14 04:31:00,42.0,19.0,30.11,NNW,346,2.0,5.0,40,0.00,,,0.00,,2013-02-14 12:31:00,
2013-02-14 04:41:00,43.0,20.0,30.12,North,355,2.0,4.0,39,0.00,,,0.00,,2013-02-14 12:41:00,
2013-02-14 04:53:00,43.0,20.0,30.12,North,355,2.0,4.0,39,0.00,,,0.00,,2013-02-14 12:53:00,
2013-02-14 05:01:00,44.0,18.0,30.12,North,11,2.0,6.0,35,0.00,,,0.00,,2013-02-14 13:01:00,
2013-02-14 05:11:00,43.0,18.0,30.12,North,5,1.0,4.0,36,0.00,,,0.00,,2013-02-14 13:11:00,
2013-02-14 05:21:00,43.0,18.0,30.12,North,5,1.0,4.0,36,0.00,,,0.00,,2013-02-14 13:21:00,
2013-02-14 05:31:00,46.0,19.0,30.12,NNW,339,2.0,7.0,33,0.00,,,0.00,,2013-02-14 13:31:00,
2013-02-14 05:41:00,46.0,19.0,30.12,North,10,1.0,6.0,34,0.00,,,0.00,,2013-02-14 13:41:00,
2013-02-14 05:51:00,46.0,19.0,30.12,North,10,1.0,6.0,34,0.00,,,0.00,,2013-02-14 13:51:00,
2013-02-14 06:01:00,46.0,21.0,30.12,NNE,22,1.0,9.0,37,0.00,,,0.00,,2013-02-14 14:01:00,
2013-02-14 06:11:00,45.0,22.0,30.13,ENE,65,0.0,5.0,40,0.00,,,0.00,,2013-02-14 14:11:00,
2013-02-14 06:21:00,45.0,22.0,30.13,ENE,65,0.0,5.0,40,0.00,,,0.00,,2013-02-14 14:21:00,
2013-02-14 06:31:00,44.0,22.0,30.13,North,5,2.0,6.0,42,0.00,,,0.00,,2013-02-14 14:31:00,
2013-02-14 06:41:00,44.0,22.0,30.13,North,5,2.0,6.0,42,0.00,,,0.00,,2013-02-14 14:41:00,
2013-02-14 06:52:00,44.0,23.0,30.13,North,355,1.0,4.0,44,0.00,,,0.00,,2013-02-14 14:52:00,
2013-02-14 07:01:00,43.0,23.0,30.13,NNW,336,1.0,4.0,45,0.00,,,0.00,,2013-02-14 15:01:00,
2013-02-14 07:11:00,44.0,22.0,30.13,SSE,165,2.0,6.0,41,0.00,,,0.00,,2013-02-14 15:11:00,
2013-02-14 07:21:00,44.0,22.0,30.13,SSE,165,2.0,6.0,41,0.00,,,0.00,,2013-02-14 15:21:00,
2013-02-14 07:31:00,47.0,22.0,30.13,NNW,334,2.0,6.0,37,0.00,,,0.00,,2013-02-14 15:31:00,
2013-02-14 07:41:00,47.0,22.0,30.13,NNW,334,2.0,6.0,37,0.00,,,0.00,,2013-02-14 15:41:00,
2013-02-14 07:52:00,47.0,21.0,30.14,WSW,250,2.0,8.0,36,0.00,,,0.00,,2013-02-14 15:52:00,
2013-02-14 08:01:00,47.0,22.0,30.14,NNW,344,2.0,5.0,37,0.00,,,0.00,,2013-02-14 16:01:00,
2013-02-14 08:11:00,48.0,22.0,30.15,WSW,249,2.0,7.0,36,0.00,,,0.00,,2013-02-14 16:11:00,
2013-02-14 08:21:00,48.0,22.0,30.15,WSW,249,2.0,7.0,36,0.00,,,0.00,,2013-02-14 16:21:00,
2013-02-14 08:31:00,49.0,23.0,30.16,WSW,248,1.0,12.0,36,0.00,,,0.00,,2013-02-14 16:31:00,
2013-02-14 08:41:00,49.0,23.0,30.16,WSW,248,1.0,12.0,36,0.00,,,0.00,,2013-02-14 16:41:00,
2013-02-14 08:52:00,49.0,23.0,30.16,NNE,13,3.0,17.0,36,0.00,,,0.00,,2013-02-14 16:52:00,
2013-02-14 09:01:00,49.0,23.0,30.16,WNW,287,3.0,9.0,36,0.00,,,0.00,,2013-02-14 17:01:00,
2013-02-14 09:11:00,50.0,25.0,30.16,NNE,15,3.0,14.0,38,0.00,,,0.00,,2013-02-14 17:11:00,
2013-02-14 09:21:00,50.0,25.0,30.16,NNE,15,3.0,14.0,38,0.00,,,0.00,,2013-02-14 17:21:00,
2013-02-14 09:31:00,51.0,24.0,30.16,SW,222,2.0,11.0,35,0.00,,,0.00,,2013-02-14 17:31:00,
2013-02-14 09:41:00,51.0,24.0,30.16,SW,222,2.0,11.0,35,0.00,,,0.00,,2013-02-14 17:41:00,
2013-02-14 09:52:00,50.0,24.0,30.17,SE,130,7.0,13.0,36,0.00,,,0.00,,2013-02-14 17:52:00,
2013-02-14 10:01:00,50.0,25.0,30.18,SSW,202,9.0,12.0,37,0.00,,,0.00,,2013-02-14 18:01:00,
2013-02-14 10:11:00,50.0,25.0,30.18,SSW,202,9.0,12.0,37,0.00,,,0.00,,2013-02-14 18:11:00,
2013-02-14 10:22:00,49.0,23.0,30.19,SW,215,9.0,16.0,36,0.00,,,0.00,,2013-02-14 18:22:00,
2013-02-14 10:31:00,50.0,25.0,30.19,SSW,207,10.0,14.0,37,0.00,,,0.00,,2013-02-14 18:31:00,
2013-02-14 10:41:00,50.0,25.0,30.19,SSW,207,10.0,14.0,37,0.00,,,0.00,,2013-02-14 18:41:00,
2013-02-14 10:52:00,51.0,24.0,30.19,South,190,6.0,15.0,35,0.00,,,0.00,,2013-02-14 18:52:00,
2013-02-14 11:01:00,53.0,26.0,30.19,SW,221,9.0,15.0,35,0.00,,,0.00,,2013-02-14 19:01:00,
2013-02-14 11:11:00,52.0,25.0,30.19,SW,220,9.0,18.0,34,0.00,,,0.00,,2013-02-14 19:11:00,
2013-02-14 11:21:00,52.0,25.0,30.19,SW,220,9.0,18.0,34,0.00,,,0.00,,2013-02-14 19:21:00,
2013-02-14 11:31:00,53.0,25.0,30.19,SW,230,7.0,12.0,33,0.00,,,0.00,,2013-02-14 19:31:00,
2013-02-14 11:41:00,53.0,25.0,30.19,SW,230,7.0,12.0,33,0.00,,,0.00,,2013-02-14 19:41:00,
2013-02-14 11:52:00,53.0,24.0,30.18,SE,137,12.0,21.0,32,0.00,,,0.00,,2013-02-14 19:52:00,
2013-02-14 12:01:00,54.0,24.0,30.18,South,183,11.0,19.0,31,0.00,,,0.00,,2013-02-14 20:01:00,
2013-02-14 12:11:00,55.0,26.0,30.17,SW,236,5.0,14.0,32,0.00,,,0.00,,2013-02-14 20:11:00,
2013-02-14 12:21:00,55.0,26.0,30.17,SW,236,5.0,14.0,32,0.00,,,0.00,,2013-02-14 20:21:00,
2013-02-14 12:31:00,55.0,25.0,30.16,South,178,10.0,18.0,31,0.00,,,0.00,,2013-02-14 20:31:00,
2013-02-14 12:41:00,55.0,25.0,30.16,South,178,10.0,18.0,31,0.00,,,0.00,,2013-02-14 20:41:00,
2013-02-14 12:51:00,55.0,24.0,30.16,SSW,198,7.0,16.0,30,0.00,,,0.00,,2013-02-14 20:51:00,
2013-02-14 13:01:00,56.0,23.0,30.15,NNW,346,4.0,15.0,28,0.00,,,0.00,,2013-02-14 21:01:00,
2013-02-14 13:11:00,56.0,23.0,30.15,NNW,346,4.0,15.0,28,0.00,,,0.00,,2013-02-14 21:11:00,
2013-02-14 13:21:00,56.0,24.0,30.14,SW,214,2.0,11.0,29,0.00,,,0.00,,2013-02-14 21:21:00,
2013-02-14 13:31:00,57.0,23.0,30.14,SSE,166,4.0,15.0,27,0.00,,,0.00,,2013-02-14 21:31:00,
2013-02-14 13:41:00,57.0,23.0,30.14,SSE,166,4.0,15.0,27,0.00,,,0.00,,2013-02-14 21:41:00,
2013-02-14 13:51:00,57.0,25.0,30.13,SE,146,6.0,13.0,29,0.00,,,0.00,,2013-02-14 21:51:00,
2013-02-14 14:01:00,57.0,22.0,30.13,West,275,4.0,12.0,26,0.00,,,0.00,,2013-02-14 22:01:00,
2013-02-14 14:11:00,57.0,23.0,30.12,NNW,338,4.0,10.0,27,0.00,,,0.00,,2013-02-14 22:11:00,
2013-02-14 14:21:00,57.0,23.0,30.12,NNW,338,4.0,10.0,27,0.00,,,0.00,,2013-02-14 22:21:00,
2013-02-14 14:31:00,58.0,24.0,30.12,NE,53,9.0,19.0,27,0.00,,,0.00,,2013-02-14 22:31:00,
2013-02-14 14:41:00,58.0,24.0,30.12,NE,53,9.0,19.0,27,0.00,,,0.00,,2013-02-14 22:41:00,
2013-02-14 14:51:00,58.0,23.0,30.12,NW,323,5.0,9.0,26,0.00,,,0.00,,2013-02-14 22:51:00,
2013-02-14 15:01:00,58.0,22.0,30.12,North,355,4.0,15.0,25,0.00,,,0.00,,2013-02-14 23:01:00,
2013-02-14 15:11:00,58.0,22.0,30.12,North,355,4.0,15.0,25,0.00,,,0.00,,2013-02-14 23:11:00,
2013-02-14 15:21:00,58.0,22.0,30.12,NE,42,4.0,12.0,25,0.00,,,0.00,,2013-02-14 23:21:00,
2013-02-14 15:31:00,58.0,22.0,30.12,ESE,111,2.0,27.0,25,0.00,,,0.00,,2013-02-14 23:31:00,
2013-02-14 15:41:00,58.0,22.0,30.12,ESE,111,2.0,27.0,25,0.00,,,0.00,,2013-02-14 23:41:00,
2013-02-14 15:52:00,58.0,23.0,30.12,North,5,6.0,16.0,26,0.00,,,0.00,,2013-02-14 23:52:00,
2013-02-14 16:01:00,57.0,22.0,30.12,WNW,300,8.0,14.0,25,0.00,,,0.00,,2013-02-15 00:01:00,
2013-02-14 16:11:00,57.0,22.0,30.12,WNW,300,8.0,14.0,25,0.00,,,0.00,,2013-02-15 00:11:00,
2013-02-14 16:21:00,58.0,23.0,30.12,NNE,23,4.0,12.0,26,0.00,,,0.00,,2013-02-15 00:21:00,
2013-02-14 16:31:00,58.0,22.0,30.13,East,88,4.0,14.0,25,0.00,,,0.00,,2013-02-15 00:31:00,
2013-02-14 16:41:00,58.0,22.0,30.13,East,88,4.0,14.0,25,0.00,,,0.00,,2013-02-15 00:41:00,
2013-02-14 16:52:00,57.0,22.0,30.13,ESE,109,3.0,12.0,25,0.00,,,0.00,,2013-02-15 00:52:00,
2013-02-14 17:01:00,55.0,21.0,30.12,SSW,210,5.0,14.0,26,0.00,,,0.00,,2013-02-15 01:01:00,
2013-02-14 17:11:00,55.0,21.0,30.12,SSW,210,5.0,14.0,26,0.00,,,0.00,,2013-02-15 01:11:00,
2013-02-14 17:21:00,55.0,23.0,30.12,WNW,303,1.0,7.0,29,0.00,,,0.00,,2013-02-15 01:21:00,
2013-02-14 17:31:00,54.0,21.0,30.12,NNW,341,4.0,9.0,27,0.00,,,0.00,,2013-02-15 01:31:00,
2013-02-14 17:41:00,54.0,21.0,30.12,NNW,341,4.0,9.0,27,0.00,,,0.00,,2013-02-15 01:41:00,
2013-02-14 17:51:00,53.0,22.0,30.13,SW,229,2.0,6.0,29,0.00,,,0.00,,2013-02-15 01:51:00,
2013-02-14 18:01:00,53.0,22.0,30.13,SSW,210,2.0,6.0,29,0.00,,,0.00,,2013-02-15 02:01:00,
2013-02-14 18:11:00,52.0,22.0,30.13,West,265,2.0,8.0,30,0.00,,,0.00,,2013-02-15 02:11:00,
2013-02-14 18:21:00,52.0,22.0,30.13,West,265,2.0,8.0,30,0.00,,,0.00,,2013-02-15 02:21:00,
2013-02-14 18:31:00,49.0,23.0,30.14,North,355,1.0,4.0,36,0.00,,,0.00,,2013-02-15 02:31:00,
2013-02-14 18:41:00,49.0,23.0,30.14,North,355,1.0,4.0,36,0.00,,,0.00,,2013-02-15 02:41:00,
2013-02-14 18:52:00,48.0,24.0,30.14,North,355,1.0,4.0,38,0.00,,,0.00,,2013-02-15 02:52:00,
2013-02-14 19:01:00,48.0,22.0,30.15,NNW,346,2.0,5.0,36,0.00,,,0.00,,2013-02-15 03:01:00,
2013-02-14 19:11:00,47.0,24.0,30.16,North,5,3.0,6.0,40,0.00,,,0.00,,2013-02-15 03:11:00,
2013-02-14 19:21:00,47.0,24.0,30.16,North,5,3.0,6.0,40,0.00,,,0.00,,2013-02-15 03:21:00,
2013-02-14 19:32:00,47.0,22.0,30.16,North,5,1.0,5.0,37,0.00,,,0.00,,2013-02-15 03:32:00,
2013-02-14 19:41:00,47.0,22.0,30.16,North,5,1.0,5.0,37,0.00,,,0.00,,2013-02-15 03:41:00,
2013-02-14 19:51:00,47.0,21.0,30.17,North,360,2.0,5.0,36,0.00,,,0.00,,2013-02-15 03:51:00,
2013-02-14 20:01:00,47.0,23.0,30.17,North,355,1.0,4.0,38,0.00,,,0.00,,2013-02-15 04:01:00,
2013-02-14 20:11:00,47.0,23.0,30.17,North,355,1.0,4.0,38,0.00,,,0.00,,2013-02-15 04:11:00,
2013-02-14 20:21:00,45.0,22.0,30.17,NNW,336,3.0,4.0,40,0.00,,,0.00,,2013-02-15 04:21:00,
2013-02-14 20:31:00,46.0,22.0,30.17,North,5,2.0,5.0,39,0.00,,,0.00,,2013-02-15 04:31:00,
2013-02-14 20:41:00,46.0,22.0,30.17,North,5,2.0,5.0,39,0.00,,,0.00,,2013-02-15 04:41:00,
2013-02-14 20:52:00,47.0,22.0,30.18,NNE,14,3.0,6.0,37,0.00,,,0.00,,2013-02-15 04:52:00,
2013-02-14 21:01:00,46.0,22.0,30.18,SW,228,0.0,6.0,39,0.00,,,0.00,,2013-02-15 05:01:00,
2013-02-14 21:11:00,46.0,22.0,30.18,SW,228,0.0,6.0,39,0.00,,,0.00,,2013-02-15 05:11:00,
2013-02-14 21:22:00,46.0,22.0,30.19,North,360,0.0,5.0,39,0.00,,,0.00,,2013-02-15 05:22:00,
2013-02-14 21:32:00,46.0,22.0,30.20,North,355,2.0,6.0,39,0.00,,,0.00,,2013-02-15 05:32:00,
2013-02-14 21:41:00,46.0,22.0,30.20,North,355,2.0,6.0,39,0.00,,,0.00,,2013-02-15 05:41:00,
2013-02-14 21:52:00,46.0,23.0,30.20,North,360,2.0,6.0,40,0.00,,,0.00,,2013-02-15 05:52:00,
2013-02-14 22:01:00,45.0,23.0,30.20,North,349,3.0,5.0,41,0.00,,,0.00,,2013-02-15 06:01:00,
2013-02-14 22:11:00,45.0,23.0,30.20,North,355,1.0,5.0,41,0.00,,,0.00,,2013-02-15 06:11:00,
2013-02-14 22:21:00,45.0,23.0,30.20,North,355,1.0,5.0,41,0.00,,,0.00,,2013-02-15 06:21:00,
2013-02-14 22:31:00,44.0,23.0,30.20,North,360,3.0,6.0,44,0.00,,,0.00,,2013-02-15 06:31:00,
2013-02-14 22:41:00,44.0,23.0,30.20,North,360,3.0,6.0,44,0.00,,,0.00,,2013-02-15 06:41:00,
2013-02-14 22:51:00,43.0,24.0,30.21,North,355,3.0,4.0,46,0.00,,,0.00,,2013-02-15 06:51:00,
2013-02-14 23:01:00,43.0,24.0,30.20,North,355,1.0,4.0,46,0.00,,,0.00,,2013-02-15 07:01:00,
2013-02-14 23:11:00,43.0,24.0,30.20,North,355,1.0,4.0,46,0.00,,,0.00,,2013-02-15 07:11:00,
2013-02-14 23:21:00,44.0,25.0,30.20,North,9,3.0,7.0,46,0.00,,,0.00,,2013-02-15 07:21:00,
2013-02-14 23:31:00,43.0,24.0,30.20,North,355,3.0,6.0,47,0.00,,,0.00,,2013-02-15 07:31:00,
2013-02-14 23:41:00,43.0,24.0,30.20,North,355,3.0,6.0,47,0.00,,,0.00,,2013-02-15 07:41:00,
2013-02-14 23:52:00,43.0,24.0,30.20,NNW,346,2.0,5.0,46,0.00,,,0.00,,2013-02-15 07:52:00,